AUA2339 LOWW-HEGN

Flight info

Callsign AUA2339
Flight time N/A
Altitude 35000
Route ARSIN DCT NALOX DCT SUNOR DCT OSDUK DCT ADULA DCT SOMUN DCT VABEK UL603 OLOTA DCT MAKED/N0439F370 UL617 KEA UL607 GENDO DCT PAXIS Y707 OBRAN L321 REXUM M872 BOPOB BOPOB1A
Aircraft A320/M-SDE3FGHIRWY/LB1

Departure

Time 2026-05-04 07:26
Airport Vienna International Airport (LOWW)

Arrival

Time N/A
Airport Hurghada International Airport (HEGN)
Time Latitude Longitude Altitude Speed Heading
2026-05-04 06:30 48.11746 16.56682 618 ft 0 kts 25°
2026-05-04 06:33 48.11745 16.56682 618 ft 0 kts 25°
2026-05-04 07:15 48.11744 16.56681 609 ft 2 kts 25°
2026-05-04 07:15 48.11723 16.56665 625 ft 3 kts 30°
2026-05-04 07:16 48.11702 16.56645 622 ft 3 kts 40°
2026-05-04 07:16 48.11686 16.56620 620 ft 3 kts 68°
2026-05-04 07:16 48.11684 16.56595 622 ft 1 kts 116°
2026-05-04 07:16 48.11686 16.56590 622 ft 1 kts 116°
2026-05-04 07:19 48.11685 16.56591 622 ft 2 kts 116°
2026-05-04 07:19 48.11667 16.56648 618 ft 11 kts 116°
2026-05-04 07:19 48.11626 16.56775 614 ft 15 kts 116°
2026-05-04 07:20 48.11579 16.56918 614 ft 16 kts 116°
2026-05-04 07:20 48.11528 16.57075 619 ft 18 kts 116°
2026-05-04 07:20 48.11477 16.57231 613 ft 16 kts 116°
2026-05-04 07:20 48.11435 16.57362 614 ft 14 kts 113°
2026-05-04 07:22 48.11984 16.57315 617 ft 10 kts 50°
2026-05-04 07:22 48.12005 16.57411 615 ft 10 kts 74°
2026-05-04 07:23 48.12010 16.57506 609 ft 9 kts 104°
2026-05-04 07:23 48.11994 16.57603 609 ft 10 kts 104°
2026-05-04 07:23 48.11975 16.57714 616 ft 12 kts 105°
2026-05-04 07:23 48.11931 16.57831 615 ft 13 kts 137°
2026-05-04 07:24 48.11888 16.57856 620 ft 0 kts 164°
2026-05-04 07:24 48.11883 16.57859 617 ft 5 kts 165°
2026-05-04 07:24 48.11645 16.57959 614 ft 71 kts 163°
2026-05-04 07:24 48.10967 16.58244 618 ft 129 kts 164°
2026-05-04 07:25 48.09964 16.58657 683 ft 166 kts 163°
2026-05-04 07:26 48.00100 16.62834 4476 ft 256 kts 166°
2026-05-04 07:27 47.98379 16.63475 5270 ft 261 kts 170°
2026-05-04 07:27 47.96582 16.64020 6064 ft 267 kts 171°
2026-05-04 07:27 47.94737 16.64537 6775 ft 272 kts 171°
2026-05-04 07:27 47.92867 16.65051 7536 ft 275 kts 171°
2026-05-04 07:28 47.90979 16.65572 8349 ft 277 kts 171°
2026-05-04 07:28 47.89080 16.66102 9188 ft 279 kts 171°
2026-05-04 07:28 47.87164 16.66643 10038 ft 280 kts 171°
2026-05-04 07:28 47.85211 16.67200 10449 ft 296 kts 171°
2026-05-04 07:29 47.83106 16.67800 10674 ft 318 kts 171°
2026-05-04 07:29 47.80928 16.68423 11176 ft 326 kts 171°
2026-05-04 07:29 47.78686 16.69068 11846 ft 330 kts 170°
2026-05-04 07:29 47.76420 16.69724 12548 ft 334 kts 170°
2026-05-04 07:30 47.74128 16.70388 13253 ft 337 kts 170°
2026-05-04 07:30 47.71819 16.71052 13923 ft 340 kts 170°
2026-05-04 07:30 47.69487 16.71722 14527 ft 343 kts 170°
2026-05-04 07:30 47.67129 16.72392 15122 ft 346 kts 170°
2026-05-04 07:31 47.64765 16.73064 15719 ft 349 kts 170°
2026-05-04 07:31 47.62394 16.73741 16318 ft 352 kts 170°
2026-05-04 07:33 47.44862 16.76506 20036 ft 374 kts 177°
2026-05-04 07:33 47.42252 16.76757 20500 ft 378 kts 177°
2026-05-04 07:33 47.39613 16.77011 20960 ft 382 kts 177°
2026-05-04 07:33 47.36944 16.77270 21400 ft 386 kts 177°
2026-05-04 07:34 47.34284 16.77526 21856 ft 390 kts 177°
2026-05-04 07:34 47.31560 16.77783 22308 ft 394 kts 177°
2026-05-04 07:34 47.28804 16.78040 22755 ft 398 kts 177°
2026-05-04 07:34 47.26022 16.78298 23185 ft 403 kts 177°
2026-05-04 07:35 47.23216 16.78563 23612 ft 406 kts 177°
2026-05-04 07:35 47.20381 16.78835 23969 ft 410 kts 177°
2026-05-04 07:35 47.17528 16.79113 24334 ft 413 kts 177°
2026-05-04 07:35 47.14652 16.79391 24693 ft 415 kts 177°
2026-05-04 07:36 47.11794 16.79662 25039 ft 418 kts 177°
2026-05-04 07:36 47.08879 16.79936 25377 ft 421 kts 177°
2026-05-04 07:38 46.88061 16.82882 27638 ft 441 kts 160°
2026-05-04 07:38 46.85266 16.84724 27942 ft 443 kts 150°
2026-05-04 07:38 46.82740 16.87220 28230 ft 446 kts 140°
2026-05-04 07:38 46.80371 16.90149 28535 ft 448 kts 139°
2026-05-04 07:39 46.77984 16.93100 28829 ft 450 kts 139°
2026-05-04 07:39 46.75582 16.96051 29139 ft 452 kts 140°
2026-05-04 07:39 46.73172 16.99003 29417 ft 454 kts 139°
2026-05-04 07:39 46.70739 17.01974 29692 ft 456 kts 139°
2026-05-04 07:40 46.68301 17.04952 29969 ft 459 kts 139°
2026-05-04 07:40 46.65852 17.07947 30212 ft 461 kts 139°
2026-05-04 07:40 46.63427 17.10916 30413 ft 463 kts 139°
2026-05-04 07:40 46.60959 17.13933 30616 ft 465 kts 139°
2026-05-04 07:41 46.58480 17.16960 30814 ft 467 kts 139°
2026-05-04 07:41 46.55988 17.19996 31045 ft 467 kts 139°
2026-05-04 07:41 46.53497 17.23023 31339 ft 466 kts 140°
2026-05-04 07:41 46.51010 17.26042 31625 ft 466 kts 140°
2026-05-04 07:42 46.48519 17.29063 31897 ft 466 kts 140°
2026-05-04 07:42 46.46038 17.32073 32178 ft 465 kts 140°
2026-05-04 07:42 46.43555 17.35101 32461 ft 465 kts 139°
2026-05-04 07:42 46.41123 17.38083 32741 ft 465 kts 139°
2026-05-04 07:43 46.38660 17.41113 33015 ft 465 kts 139°
2026-05-04 07:43 46.36195 17.44145 33291 ft 464 kts 139°
2026-05-04 07:43 46.33734 17.47162 33559 ft 464 kts 139°
2026-05-04 07:43 46.31263 17.50176 33834 ft 464 kts 140°
2026-05-04 07:44 46.28795 17.53179 34105 ft 464 kts 140°
2026-05-04 07:44 46.26325 17.56176 34338 ft 464 kts 140°
2026-05-04 07:44 46.23855 17.59169 34567 ft 463 kts 140°
2026-05-04 07:44 46.21420 17.62119 34799 ft 463 kts 140°
2026-05-04 07:45 46.18959 17.65101 35027 ft 462 kts 140°
2026-05-04 07:45 46.16496 17.68084 35128 ft 460 kts 140°
2026-05-04 07:45 46.11620 17.73994 35141 ft 457 kts 140°
2026-05-04 07:46 46.06757 17.79869 35147 ft 456 kts 140°
2026-05-04 07:46 46.01885 17.85729 35153 ft 456 kts 140°
2026-05-04 07:47 45.97037 17.91542 35159 ft 457 kts 140°
2026-05-04 07:49 45.77493 18.14769 35158 ft 457 kts 142°
2026-05-04 07:49 45.72314 18.20057 35160 ft 458 kts 146°
2026-05-04 07:50 45.67010 18.25091 35153 ft 458 kts 146°
2026-05-04 07:50 45.61725 18.30183 35147 ft 458 kts 144°
2026-05-04 07:51 45.56520 18.35326 35152 ft 458 kts 144°
2026-05-04 07:51 45.51285 18.40517 35150 ft 458 kts 144°
2026-05-04 07:52 45.46030 18.45682 35153 ft 459 kts 144°
2026-05-04 07:52 45.40770 18.50817 35155 ft 459 kts 144°
2026-05-04 07:54 45.19036 18.69759 35152 ft 461 kts 153°
2026-05-04 07:55 45.13303 18.73735 35148 ft 461 kts 153°
2026-05-04 07:55 45.07536 18.77732 35148 ft 462 kts 153°
2026-05-04 07:56 45.01755 18.81724 35150 ft 463 kts 153°
2026-05-04 07:56 44.95997 18.85681 35150 ft 463 kts 153°
2026-05-04 07:57 44.90159 18.89690 35152 ft 464 kts 153°
2026-05-04 07:57 44.84396 18.93641 35154 ft 464 kts 153°
2026-05-04 07:58 44.78580 18.97611 35155 ft 465 kts 153°
2026-05-04 07:58 44.72756 19.01587 35159 ft 466 kts 153°
2026-05-04 07:59 44.66917 19.05555 35168 ft 466 kts 153°
2026-05-04 07:59 44.61109 19.09493 35162 ft 467 kts 152°
2026-05-04 08:00 44.55664 19.14379 35165 ft 465 kts 143°
2026-05-04 08:02 44.34445 19.35153 35182 ft 466 kts 143°
2026-05-04 08:02 44.29116 19.40317 35178 ft 466 kts 143°
2026-05-04 08:03 44.23789 19.45484 35178 ft 466 kts 143°
2026-05-04 08:03 44.18501 19.50612 35170 ft 466 kts 143°
2026-05-04 08:04 44.13163 19.55762 35172 ft 467 kts 143°
2026-05-04 08:04 44.07819 19.60905 35178 ft 467 kts 143°
2026-05-04 08:05 44.02484 19.66037 35181 ft 468 kts 143°
2026-05-04 08:05 43.97119 19.71179 35187 ft 468 kts 143°
2026-05-04 08:06 43.91795 19.76276 35185 ft 468 kts 143°
2026-05-04 08:06 43.86425 19.81403 35187 ft 469 kts 143°
2026-05-04 08:08 43.64922 20.01819 35191 ft 470 kts 143°
2026-05-04 08:11 43.40600 20.24702 35182 ft 472 kts 143°
2026-05-04 08:11 43.32473 20.32293 35186 ft 472 kts 143°
2026-05-04 08:12 43.27021 20.37375 35183 ft 472 kts 143°
2026-05-04 08:12 43.21620 20.42395 35187 ft 473 kts 143°
2026-05-04 08:13 43.16177 20.47444 35188 ft 473 kts 143°
2026-05-04 08:13 43.10731 20.52491 35189 ft 473 kts 143°
2026-05-04 08:14 43.05277 20.57529 35190 ft 472 kts 143°
2026-05-04 08:16 42.85839 20.81025 35189 ft 468 kts 133°
2026-05-04 08:16 42.81129 20.87139 35208 ft 468 kts 133°
2026-05-04 08:17 42.76415 20.93250 35204 ft 467 kts 133°
2026-05-04 08:17 42.71737 20.99306 35210 ft 467 kts 133°
2026-05-04 08:19 42.52905 21.23581 35207 ft 468 kts 133°
2026-05-04 08:20 42.48174 21.29644 35199 ft 468 kts 133°
2026-05-04 08:20 42.43434 21.35704 35192 ft 469 kts 133°
2026-05-04 08:21 42.38683 21.41764 35184 ft 469 kts 133°
2026-05-04 08:21 42.33927 21.47819 35183 ft 470 kts 133°
2026-05-04 08:22 42.29193 21.53831 35189 ft 470 kts 133°
2026-05-04 08:24 42.10530 21.72036 35204 ft 478 kts 145°
2026-05-04 08:24 42.07738 21.74356 35207 ft 478 kts 145°
2026-05-04 08:24 42.02076 21.79055 35201 ft 478 kts 145°
2026-05-04 08:25 41.96403 21.83742 35202 ft 479 kts 145°
2026-05-04 08:25 41.90736 21.88421 35184 ft 480 kts 145°
2026-05-04 08:27 41.67988 22.07095 35199 ft 480 kts 145°
2026-05-04 08:28 41.62338 22.11701 35202 ft 479 kts 145°
2026-05-04 08:28 41.56632 22.16344 35206 ft 479 kts 145°
2026-05-04 08:29 41.50944 22.20976 35210 ft 478 kts 146°
2026-05-04 08:31 41.28271 22.39332 35194 ft 477 kts 146°
2026-05-04 08:33 41.08314 22.55137 35687 ft 482 kts 149°
2026-05-04 08:33 41.05352 22.57223 35922 ft 481 kts 150°
2026-05-04 08:35 40.84827 22.71600 37190 ft 475 kts 150°
2026-05-04 08:35 40.81916 22.73666 37188 ft 475 kts 150°
2026-05-04 08:35 40.76086 22.77779 37189 ft 475 kts 150°
2026-05-04 08:37 40.55750 22.92063 37197 ft 474 kts 150°
2026-05-04 08:38 40.49930 22.96130 37191 ft 474 kts 150°
2026-05-04 08:38 40.44024 22.99932 37194 ft 475 kts 158°
2026-05-04 08:40 40.19341 23.12198 37179 ft 476 kts 158°
2026-05-04 08:41 40.13141 23.15272 37178 ft 476 kts 158°
2026-05-04 08:41 40.06981 23.18320 37183 ft 476 kts 159°
2026-05-04 08:42 40.00783 23.21370 37185 ft 476 kts 159°
2026-05-04 08:42 39.95621 23.23906 37189 ft 477 kts 159°
2026-05-04 08:43 39.88460 23.27419 37186 ft 477 kts 159°
2026-05-04 08:43 39.83212 23.29996 37191 ft 477 kts 159°
2026-05-04 08:44 39.77001 23.33041 37185 ft 477 kts 159°
2026-05-04 08:46 39.52129 23.45132 37190 ft 479 kts 160°
2026-05-04 08:46 39.45936 23.48137 37181 ft 479 kts 160°
2026-05-04 08:47 39.39688 23.51161 37171 ft 479 kts 160°
2026-05-04 08:47 39.33440 23.54186 37172 ft 480 kts 160°
2026-05-04 08:48 39.27189 23.57207 37165 ft 480 kts 160°
2026-05-04 08:48 39.20967 23.60199 37169 ft 481 kts 160°
2026-05-04 08:49 39.14677 23.63153 37167 ft 481 kts 161°
2026-05-04 08:50 38.92432 23.72562 37181 ft 483 kts 162°
2026-05-04 08:51 38.86059 23.75304 37177 ft 484 kts 162°
2026-05-04 08:51 38.79742 23.78015 37181 ft 485 kts 162°
2026-05-04 08:52 38.73261 23.80766 37171 ft 486 kts 162°
2026-05-04 08:52 38.66880 23.83465 37181 ft 486 kts 162°
2026-05-04 08:54 38.41162 23.94334 37189 ft 489 kts 163°
2026-05-04 08:55 38.34696 23.97048 37184 ft 489 kts 163°
2026-05-04 08:55 38.28235 23.99756 37184 ft 489 kts 163°
2026-05-04 09:01 37.60406 24.27937 37195 ft 490 kts 164°
2026-05-04 09:01 37.54095 24.31156 37191 ft 493 kts 151°
2026-05-04 09:02 37.48261 24.35740 37187 ft 493 kts 149°
2026-05-04 09:02 37.42477 24.40290 37185 ft 493 kts 149°
2026-05-04 09:03 37.36646 24.44854 37184 ft 494 kts 149°
2026-05-04 09:03 37.30806 24.49416 37180 ft 494 kts 149°
2026-05-04 09:04 37.24958 24.53982 37178 ft 495 kts 149°
2026-05-04 09:04 37.19111 24.58552 37178 ft 495 kts 149°
2026-05-04 09:05 37.13295 24.63079 37183 ft 496 kts 149°
2026-05-04 09:05 37.07435 24.67631 37184 ft 496 kts 149°
2026-05-04 09:06 37.01566 24.72178 37183 ft 496 kts 149°
2026-05-04 09:08 36.78700 24.91442 37181 ft 498 kts 144°
2026-05-04 09:08 36.73102 24.96526 37178 ft 498 kts 146°
2026-05-04 09:09 36.67455 25.01513 37175 ft 497 kts 146°
2026-05-04 09:09 36.61838 25.06453 37167 ft 497 kts 146°
2026-05-04 09:10 36.56198 25.11445 37170 ft 498 kts 146°
2026-05-04 09:10 36.50576 25.16437 37166 ft 498 kts 146°
2026-05-04 09:11 36.44920 25.21434 37166 ft 498 kts 146°
2026-05-04 09:11 36.39298 25.26368 37165 ft 498 kts 146°
2026-05-04 09:12 36.33637 25.31342 37168 ft 499 kts 146°
2026-05-04 09:14 36.11026 25.51146 37162 ft 498 kts 147°
2026-05-04 09:14 36.05368 25.56077 37159 ft 498 kts 147°
2026-05-04 09:15 35.99704 25.61004 37154 ft 498 kts 147°
2026-05-04 09:15 35.94038 25.65928 37151 ft 498 kts 147°
2026-05-04 09:17 35.68535 25.87973 37137 ft 499 kts 148°
2026-05-04 09:18 35.62870 25.92833 37139 ft 500 kts 148°
2026-05-04 09:18 35.57169 25.97727 37136 ft 500 kts 148°
2026-05-04 09:19 35.51462 26.02615 37132 ft 500 kts 148°
2026-05-04 09:19 35.45748 26.07512 37130 ft 501 kts 148°
2026-05-04 09:20 35.40027 26.12400 37127 ft 501 kts 148°
2026-05-04 09:20 35.34331 26.17251 37124 ft 502 kts 148°
2026-05-04 09:21 35.28643 26.22092 37120 ft 503 kts 148°
2026-05-04 09:21 35.22846 26.27011 37123 ft 503 kts 148°
2026-05-04 09:22 35.17089 26.31896 37126 ft 504 kts 148°
2026-05-04 09:22 35.11335 26.36777 37130 ft 504 kts 148°
2026-05-04 09:23 35.05610 26.41616 37129 ft 504 kts 149°
2026-05-04 09:23 34.99838 26.46471 37130 ft 503 kts 149°
2026-05-04 09:25 34.76863 26.65777 37141 ft 501 kts 149°
2026-05-04 09:26 34.71122 26.70572 37138 ft 501 kts 149°
2026-05-04 09:26 34.65370 26.75372 37131 ft 501 kts 149°
2026-05-04 09:27 34.59667 26.80128 37129 ft 501 kts 149°
2026-05-04 09:27 34.53922 26.84916 37124 ft 501 kts 150°
2026-05-04 09:28 34.48169 26.89694 37120 ft 501 kts 150°
2026-05-04 09:28 34.42413 26.94458 37125 ft 501 kts 150°
2026-05-04 09:29 34.36700 26.99180 37125 ft 501 kts 150°
2026-05-04 09:29 34.30943 27.03936 37124 ft 501 kts 150°
2026-05-04 09:30 34.25191 27.08686 37120 ft 500 kts 150°
2026-05-04 09:30 34.19434 27.13427 37120 ft 500 kts 150°
2026-05-04 09:31 34.13729 27.18121 37120 ft 500 kts 151°
2026-05-04 09:31 34.07962 27.22846 37126 ft 500 kts 151°
2026-05-04 09:32 34.02203 27.27571 37132 ft 501 kts 151°
2026-05-04 09:34 33.81014 27.40841 37131 ft 489 kts 163°
2026-05-04 09:34 33.77899 27.42493 37139 ft 489 kts 163°
2026-05-04 09:34 33.71681 27.45792 37129 ft 489 kts 163°
2026-05-04 09:35 33.65462 27.49082 37128 ft 488 kts 163°
2026-05-04 09:35 33.59285 27.52329 37126 ft 488 kts 163°
2026-05-04 09:37 33.34483 27.65362 37132 ft 487 kts 164°
2026-05-04 09:38 33.28272 27.68608 37131 ft 487 kts 164°
2026-05-04 09:38 33.22067 27.71850 37131 ft 487 kts 164°
2026-05-04 09:39 33.15963 27.75030 37136 ft 486 kts 164°
2026-05-04 09:39 33.09706 27.78285 37143 ft 486 kts 164°
2026-05-04 09:40 33.03507 27.81505 37145 ft 486 kts 165°
2026-05-04 09:40 32.97354 27.84707 37142 ft 486 kts 165°
2026-05-04 09:42 32.72624 27.97492 37155 ft 484 kts 165°
2026-05-04 09:43 32.66438 28.00684 37153 ft 483 kts 165°
2026-05-04 09:43 32.60352 28.03819 37156 ft 482 kts 165°
2026-05-04 09:44 32.54172 28.06994 37155 ft 481 kts 165°
2026-05-04 09:46 32.29671 28.19516 37150 ft 479 kts 165°
2026-05-04 09:46 32.23555 28.22632 37145 ft 479 kts 165°
2026-05-04 09:47 32.17440 28.25759 37155 ft 479 kts 165°
2026-05-04 09:49 31.93047 28.38113 37158 ft 477 kts 166°
2026-05-04 09:51 31.71624 28.48898 37123 ft 483 kts 166°
2026-05-04 09:51 31.65429 28.52003 37131 ft 483 kts 166°
2026-05-04 09:52 31.59241 28.55104 37139 ft 484 kts 166°
2026-05-04 09:52 31.53098 28.58170 37152 ft 484 kts 166°
2026-05-04 09:53 31.46895 28.61260 37157 ft 484 kts 166°
2026-05-04 09:53 31.40712 28.64324 37168 ft 483 kts 166°
2026-05-04 09:54 31.34542 28.67383 37167 ft 483 kts 166°
2026-05-04 09:54 31.28385 28.70451 37167 ft 483 kts 166°
2026-05-04 09:55 31.22176 28.73532 37172 ft 482 kts 166°
2026-05-04 09:55 31.15997 28.76579 37172 ft 482 kts 166°
2026-05-04 09:56 31.09822 28.79620 37177 ft 481 kts 166°
2026-05-04 09:56 31.03702 28.82636 37179 ft 480 kts 166°
2026-05-04 09:57 30.97581 28.85634 37181 ft 479 kts 166°
2026-05-04 09:57 30.91419 28.88655 37180 ft 479 kts 166°
2026-05-04 09:58 30.85301 28.91652 37183 ft 478 kts 166°
2026-05-04 09:58 30.79154 28.94665 37179 ft 477 kts 166°
2026-05-04 10:00 30.54960 29.06487 37157 ft 474 kts 167°
2026-05-04 10:02 30.36920 29.24596 37142 ft 502 kts 141°
2026-05-04 10:04 30.19958 29.44845 37128 ft 500 kts 142°
2026-05-04 10:04 30.15113 29.50623 37124 ft 500 kts 142°
2026-05-04 10:05 30.10306 29.56339 37126 ft 499 kts 142°
2026-05-04 10:05 30.05470 29.62081 37128 ft 499 kts 142°
2026-05-04 10:06 30.00631 29.67821 37133 ft 499 kts 142°
2026-05-04 10:06 29.95783 29.73557 37133 ft 499 kts 142°
2026-05-04 10:08 29.78858 29.93541 37142 ft 499 kts 143°
2026-05-04 10:08 29.74001 29.99255 37147 ft 498 kts 143°
2026-05-04 10:09 29.69184 30.04905 37153 ft 498 kts 143°
2026-05-04 10:09 29.64326 30.10597 37148 ft 498 kts 143°
2026-05-04 10:10 29.59476 30.16281 37150 ft 498 kts 143°
2026-05-04 10:10 29.54626 30.21961 37150 ft 498 kts 143°
2026-05-04 10:11 29.49809 30.27583 37149 ft 497 kts 143°
2026-05-04 10:11 29.44952 30.33237 37147 ft 497 kts 143°
2026-05-04 10:12 29.40102 30.38886 37154 ft 497 kts 143°
2026-05-04 10:12 29.35284 30.44570 37151 ft 497 kts 142°
2026-05-04 10:13 29.30535 30.50263 37160 ft 497 kts 142°
2026-05-04 10:13 29.25767 30.55981 37163 ft 496 kts 142°
2026-05-04 10:14 29.20984 30.61687 37167 ft 496 kts 143°
2026-05-04 10:16 29.01900 30.84308 37166 ft 494 kts 143°
2026-05-04 10:16 28.97132 30.89945 37168 ft 493 kts 143°
2026-05-04 10:17 28.92359 30.95576 37169 ft 493 kts 143°
2026-05-04 10:19 28.73305 31.17978 37165 ft 492 kts 143°
2026-05-04 10:19 28.68578 31.23549 37164 ft 493 kts 142°
2026-05-04 10:20 28.63942 31.29335 37160 ft 495 kts 141°
2026-05-04 10:20 28.59378 31.35209 37163 ft 496 kts 140°
2026-05-04 10:21 28.54784 31.41055 37161 ft 495 kts 141°
2026-05-04 10:21 28.50189 31.46812 37164 ft 494 kts 141°
2026-05-04 10:22 28.43242 31.55481 37167 ft 495 kts 141°
2026-05-04 10:23 28.38626 31.61267 37168 ft 495 kts 141°
2026-05-04 10:25 28.20148 31.84304 37164 ft 494 kts 142°
2026-05-04 10:25 28.15517 31.90056 37164 ft 494 kts 142°
2026-05-04 10:26 28.10918 31.95776 37159 ft 494 kts 142°
2026-05-04 10:26 28.06285 32.01518 37132 ft 494 kts 142°
2026-05-04 10:26 28.04001 32.04431 36739 ft 496 kts 136°
2026-05-04 10:27 28.02101 32.07708 36476 ft 502 kts 126°
2026-05-04 10:27 28.00440 32.11167 36234 ft 500 kts 126°
2026-05-04 10:27 27.98780 32.14627 35975 ft 498 kts 126°
2026-05-04 10:27 27.97154 32.18014 35725 ft 496 kts 126°
2026-05-04 10:28 27.95512 32.21433 35479 ft 493 kts 126°